FW6002 Iowa Colony TX US current weather conditions

sailwx.info

Air temperature 12.8° C
Dewpoint 10.7° C

Last reported at 2019-Dec-13 02:05 UTC.
Time now 2019-Dec-13 03:13 UTC

Location: N 29°26' W 095°27'.
View on Google Maps.

See reports from other nearby stations

  
Tides and Currents Weather Stations Pressure Air Temp Water Temp Dewpoint Dewpoint Depression Visibility Wind Speed Wind Dir Waves Ship Positions
date/time (UTC)wind fromknots sea level pressurealtimeterstation pressurevisibilityair tempwater tempwave heightnotes
2019-Dec-13 02:05 12.8
2019-Dec-13 02:03 12.8
2019-Dec-13 01:55 12.8
2019-Dec-13 01:50 12.8
2019-Dec-13 01:47 12.8
2019-Dec-13 01:40 12.8
2019-Dec-13 01:35 12.8
2019-Dec-13 01:32 12.8
2019-Dec-13 01:25 12.2
2019-Dec-13 01:20 12.2
2019-Dec-13 01:17 12.8
2019-Dec-13 01:10 12.8
2019-Dec-13 01:05 12.8
2019-Dec-13 01:04 12.8
2019-Dec-13 00:56 12.8
2019-Dec-13 00:50 12.8
2019-Dec-13 00:46 12.8
2019-Dec-13 00:41 12.8
2019-Dec-13 00:35 13.3
2019-Dec-13 00:34 074 13.9
2019-Dec-13 00:26 13.9
2019-Dec-13 00:20 074 13.9
2019-Dec-13 00:18 074 13.9
2019-Dec-13 00:10 074 14.4
2019-Dec-13 00:06 14.4
2019-Dec-13 00:04 074 14.4
2019-Dec-12 23:56 074 14.4
2019-Dec-12 23:51 074 0 gusting 2 14.4
2019-Dec-12 23:46 078 0 gusting 2 14.4
2019-Dec-12 23:40 078 0 gusting 3 15.0
2019-Dec-12 23:36 079 0 gusting 3 15.0
2019-Dec-12 23:32 075 1 gusting 3 15.0
2019-Dec-12 23:25 062 0 gusting 3 15.0
2019-Dec-12 23:21 070 15.0
2019-Dec-12 23:17 021 0 gusting 2 15.6
2019-Dec-12 23:10 086 0 gusting 3 15.6
2019-Dec-12 23:05 15.6
2019-Dec-12 23:02 077 0 gusting 4 16.1
2019-Dec-12 22:56 073 0 gusting 3 16.1
2019-Dec-12 22:50 090 1 gusting 4 16.1
2019-Dec-12 22:47 050 1 gusting 4 16.1
2019-Dec-12 22:40 040 2 gusting 4 16.7
2019-Dec-12 22:36 065 1 gusting 3 16.7
2019-Dec-12 22:32 069 1 gusting 4 16.7
2019-Dec-12 22:26 047 1 gusting 4 16.7
2019-Dec-12 22:21 063 2 gusting 5 16.7
2019-Dec-12 22:16 063 2 gusting 5 16.7
2019-Dec-12 22:10 061 17.2
2019-Dec-12 22:05 328 1 gusting 4 17.2
2019-Dec-12 22:02 119 1 gusting 4 17.2
2019-Dec-12 21:56 098 1 gusting 4 17.2
2019-Dec-12 21:50 068 0 gusting 4 17.2
2019-Dec-12 21:47 073 1 gusting 5 17.8
2019-Dec-12 21:40 074 2 gusting 5 17.8
2019-Dec-12 21:35 168 0 gusting 3 17.8
2019-Dec-12 21:31 111 0 gusting 3 17.8
2019-Dec-12 21:25 357 0 gusting 3 17.8
2019-Dec-12 21:21 069 1 gusting 3 17.2
2019-Dec-12 21:17 099 1 gusting 3 17.8
2019-Dec-12 21:11 065 0 gusting 3 17.2
2019-Dec-12 21:05 055 1 gusting 4 17.2
2019-Dec-12 21:03 086 1 gusting 4 17.2
2019-Dec-12 20:55 079 0 gusting 3 17.2
2019-Dec-12 20:50 013 17.2
2019-Dec-12 20:47 075 0 gusting 3 17.2
2019-Dec-12 20:41 091 1 gusting 3 17.2
2019-Dec-12 20:35 087 1 gusting 3 17.2
2019-Dec-12 20:32 075 0 gusting 3 17.2
2019-Dec-12 20:25 17.2
2019-Dec-12 20:20 17.2
2019-Dec-12 20:17 110 0 gusting 3 17.2
2019-Dec-12 20:11 17.2
2019-Dec-12 20:05 062 1 gusting 3 17.2
2019-Dec-12 20:03 096 0 gusting 3 17.2
2019-Dec-12 19:57 102 0 gusting 3 17.2
2019-Dec-12 19:50 079 1 gusting 3 17.2
2019-Dec-12 19:47 001 0 gusting 4 17.2
2019-Dec-12 19:41 089 0 gusting 4 17.2
2019-Dec-12 19:35 004 0 gusting 3 17.2
2019-Dec-12 19:32 073 16.7
2019-Dec-12 19:25 077 0 gusting 2 16.7
2019-Dec-12 19:20 081 0 gusting 2 16.7
2019-Dec-12 19:17 16.1
2019-Dec-12 19:10 084 2 gusting 5 16.7
2019-Dec-12 19:06 074 0 gusting 6 16.7
2019-Dec-12 19:02 076 1 gusting 6 17.2
2019-Dec-12 18:56 069 2 gusting 6 16.7
2019-Dec-12 18:50 037 1 gusting 5 16.7
2019-Dec-12 18:47 051 0 gusting 4 16.7
2019-Dec-12 18:40 098 1 gusting 4 16.1
2019-Dec-12 18:35 323 1 gusting 4 16.1
2019-Dec-12 18:32 001 0 gusting 3 15.6
2019-Dec-12 18:26 062 0 gusting 3 15.6
2019-Dec-12 18:21 086 0 gusting 3 15.6
2019-Dec-12 18:18 063 0 gusting 3 15.6
2019-Dec-12 18:10 103 1 gusting 3 15.6
2019-Dec-12 18:06 068 1 gusting 4 15.6
2019-Dec-12 18:02 082 0 gusting 5 15.0
2019-Dec-12 17:55 085 2 gusting 6 15.6
2019-Dec-12 17:51 096 2 gusting 6 15.6
2019-Dec-12 17:47 072 1 gusting 5 15.0
2019-Dec-12 17:40 124 2 gusting 5 15.0
2019-Dec-12 17:35 134 2 gusting 5 15.0
2019-Dec-12 17:32 047 1 gusting 5 15.0
2019-Dec-12 17:25 094 0 gusting 5 15.0
2019-Dec-12 17:20 082 1 gusting 5 15.0
2019-Dec-12 17:18 115 2 gusting 6 15.0
2019-Dec-12 17:10 111 1 gusting 6 14.4
2019-Dec-12 17:05 069 2 gusting 6 15.0
2019-Dec-12 17:03 047 2 gusting 5 14.4
2019-Dec-12 16:56 115 1 gusting 5 14.4
2019-Dec-12 16:50 067 2 gusting 5 14.4
2019-Dec-12 16:47 087 2 gusting 5 14.4
2019-Dec-12 16:41 13.9
2019-Dec-12 16:35 066 1 gusting 4 13.9
2019-Dec-12 16:33 084 2 gusting 4 13.9
2019-Dec-12 16:26 076 1 gusting 4 13.3
2019-Dec-12 16:20 096 1 gusting 4 13.3
2019-Dec-12 16:16 086 2 gusting 6 13.3
2019-Dec-12 16:10 112 2 gusting 6 13.3
2019-Dec-12 16:05 097 3 gusting 6 13.3
2019-Dec-12 16:02 098 2 gusting 6 13.3
2019-Dec-12 15:56 068 2 gusting 6 13.3
2019-Dec-12 15:50 079 3 gusting 6 12.8
2019-Dec-12 15:46 094 2 gusting 6 12.8
2019-Dec-12 15:41 052 2 gusting 5 12.2
2019-Dec-12 15:35 044 1 gusting 6 12.2
2019-Dec-12 15:32 004 1 gusting 6 12.2
2019-Dec-12 15:26 093 1 gusting 6 12.2
2019-Dec-12 15:21 090 3 gusting 7 11.7
2019-Dec-12 15:16 041 3 gusting 7 11.7
2019-Dec-12 15:10 072 3 gusting 6 11.7
2019-Dec-12 15:06 108 2 gusting 6 11.1
2019-Dec-12 15:02 058 3 gusting 6 11.1
2019-Dec-12 14:56 094 2 gusting 6 10.6
2019-Dec-12 14:51 060 2 gusting 6 10.6
2019-Dec-12 14:47 042 2 gusting 5 10.0
2019-Dec-12 14:40 059 2 gusting 5 10.0
2019-Dec-12 14:36 090 2 gusting 4 9.4
2019-Dec-12 14:32 001 1 gusting 4 9.4
2019-Dec-12 14:25 055 0 gusting 4 8.9
2019-Dec-12 14:20 082 1 gusting 4 8.9
2019-Dec-12 14:17 079 1 gusting 4 8.9
2019-Dec-12 14:10 057 1 gusting 4 8.3
2019-Dec-12 14:05 050 1 gusting 3 8.3
2019-Dec-12 14:01 065 1 gusting 3 8.3
2019-Dec-12 13:56 079 1 gusting 3 7.8
2019-Dec-12 13:50 075 0 gusting 3 7.8
2019-Dec-12 13:47 063 0 gusting 3 7.8
2019-Dec-12 13:41 074 0 gusting 2 7.2
2019-Dec-12 13:35 091 0 gusting 2 7.2
2019-Dec-12 13:32 086 0 gusting 2 7.2
2019-Dec-12 13:26 065 7.2
2019-Dec-12 13:21 037 7.2
2019-Dec-12 13:17 077 0 gusting 3 7.2
2019-Dec-12 13:10 089 0 gusting 3 7.2
2019-Dec-12 13:05 353 0 gusting 3 6.7
2019-Dec-12 13:01 026 0 gusting 3 7.2
2019-Dec-12 12:56 347 0 gusting 3 6.7
2019-Dec-12 12:50 351 0 gusting 3 7.2
2019-Dec-12 12:46 337 0 gusting 3 7.2
2019-Dec-12 12:41 342 0 gusting 3 7.2
2019-Dec-12 12:36 360 0 gusting 3 7.2
2019-Dec-12 12:32 359 1 gusting 3 7.2
2019-Dec-12 12:25 335 0 gusting 2 7.2
2019-Dec-12 12:20 342 0 gusting 2 7.2
2019-Dec-12 12:17 345 0 gusting 1 7.2
2019-Dec-12 12:10 056 7.2
2019-Dec-12 12:05 079 7.2
2019-Dec-12 12:03 7.2
2019-Dec-12 11:56 065 0 gusting 3 7.8
2019-Dec-12 11:52 055 0 gusting 4 7.8
2019-Dec-12 11:47 064 1 gusting 4 7.8
2019-Dec-12 11:40 070 1 gusting 4 7.8
2019-Dec-12 11:35 049 2 gusting 4 7.8
2019-Dec-12 11:31 075 1 gusting 4 8.3
2019-Dec-12 11:25 084 1 gusting 4 8.3
2019-Dec-12 11:21 072 1 gusting 4 8.3
2019-Dec-12 11:18 096 2 gusting 5 8.3
2019-Dec-12 11:10 068 1 gusting 5 8.3
2019-Dec-12 11:05 046 0 gusting 4 8.3
2019-Dec-12 11:02 359 0 gusting 7 8.3
2019-Dec-12 10:55 336 2 gusting 7 8.9
2019-Dec-12 10:50 358 3 gusting 6 8.9
2019-Dec-12 10:47 356 0 gusting 4 8.9
2019-Dec-12 10:40 058 0 gusting 8 8.9
2019-Dec-12 10:36 8.9
2019-Dec-12 10:31 121 2 gusting 6 8.9
2019-Dec-12 10:25 075 2 gusting 5 8.9
2019-Dec-12 10:20 062 1 gusting 4 8.9
2019-Dec-12 10:18 8.9
2019-Dec-12 10:10 354 0 gusting 4 8.9
2019-Dec-12 10:05 068 1 gusting 4 8.9
2019-Dec-12 10:03 077 0 gusting 3 8.9
2019-Dec-12 09:55 031 0 gusting 3 8.9
2019-Dec-12 09:50 339 0 gusting 3 8.9
2019-Dec-12 09:48 351 0 gusting 3 8.9
2019-Dec-12 09:40 008 8.9
2019-Dec-12 09:35 070 0 gusting 3 8.3
2019-Dec-12 09:32 328 0 gusting 2 8.9
2019-Dec-12 09:25 013 0 gusting 4 8.9
2019-Dec-12 09:20 341 0 gusting 4 8.9
2019-Dec-12 09:16 355 0 gusting 4 8.9
2019-Dec-12 09:11 348 0 gusting 3 8.9
2019-Dec-12 09:05 358 0 gusting 3 8.9
2019-Dec-12 09:02 359 1 gusting 5 8.9
2019-Dec-12 08:55 359 1 gusting 5 8.9
2019-Dec-12 08:51 354 0 gusting 3 8.9
2019-Dec-12 08:47 345 0 gusting 4 8.9
2019-Dec-12 08:40 360 1 gusting 4 8.9
2019-Dec-12 08:35 354 1 gusting 3 8.3
2019-Dec-12 08:31 001 0 gusting 3 8.3
2019-Dec-12 08:25 347 0 gusting 3 8.3
2019-Dec-12 08:21 029 0 gusting 2 8.3
2019-Dec-12 08:17 025 0 gusting 2 8.3
2019-Dec-12 08:10 345 0 gusting 4 8.3
2019-Dec-12 08:05 340 1 gusting 4 8.3
2019-Dec-12 08:02 333 0 gusting 4 8.3
2019-Dec-12 07:55 001 1 gusting 4 8.3
2019-Dec-12 07:51 001 0 gusting 4 8.3
2019-Dec-12 07:47 342 1 gusting 4 8.3
2019-Dec-12 07:40 007 0 gusting 3 8.3
2019-Dec-12 07:35 043 1 gusting 4 8.3
2019-Dec-12 07:32 353 0 gusting 4 8.3
2019-Dec-12 07:25 003 2 gusting 5 8.3
2019-Dec-12 07:20 001 1 gusting 5 7.8
2019-Dec-12 07:06 343 1 gusting 4 7.8
2019-Dec-12 07:02 347 2 gusting 4 7.8
2019-Dec-12 06:56 355 1 gusting 4 7.8
2019-Dec-12 06:50 001 2 gusting 4 7.8
2019-Dec-12 06:47 337 2 gusting 4 7.2
2019-Dec-12 06:41 353 0 gusting 1 7.2
2019-Dec-12 06:35 001 0 gusting 1 7.2
2019-Dec-12 06:32 7.2
2019-Dec-12 06:25 001 7.2
2019-Dec-12 06:20 360 0 gusting 2 7.2
2019-Dec-12 06:16 001 0 gusting 1 7.2
2019-Dec-12 06:10 6.7
2019-Dec-12 06:05 6.7
2019-Dec-12 06:02 356 7.2
2019-Dec-12 05:55 7.2
2019-Dec-12 05:50 359 0 gusting 2 7.2
2019-Dec-12 05:48 352 0 gusting 2 7.2
2019-Dec-12 05:41 349 0 gusting 2 7.2
2019-Dec-12 05:35 355 7.2
2019-Dec-12 05:33 356 7.2
2019-Dec-12 05:26 356 7.2
2019-Dec-12 05:20 356 7.8
2019-Dec-12 05:16 356 0 gusting 2 7.8
2019-Dec-12 05:11 346 0 gusting 2 7.8
2019-Dec-12 05:05 360 0 gusting 2 7.8
2019-Dec-12 05:02 349 0 gusting 2 7.8
2019-Dec-12 04:55 355 0 gusting 2 7.8
2019-Dec-12 04:50 360 0 gusting 2 7.8
2019-Dec-12 04:47 018 0 gusting 2 7.8
2019-Dec-12 04:41 356 0 gusting 1 7.8
2019-Dec-12 04:35 359 7.8
2019-Dec-12 04:32 358 7.8
2019-Dec-12 04:25 358 7.8
2019-Dec-12 04:20 7.8
2019-Dec-12 04:17 7.8
2019-Dec-12 04:11 354 7.8
2019-Dec-12 04:05 8.3
2019-Dec-12 04:01 353 0 gusting 2 8.3
2019-Dec-12 03:55 353 0 gusting 1 8.3
2019-Dec-12 03:51 353 8.3
2019-Dec-12 03:47 343 7.8
2019-Dec-12 03:40 7.8
2019-Dec-12 03:35 7.8
2019-Dec-12 03:26 8.3
2019-Dec-12 03:21 8.3
2019-Dec-12 03:17 8.3
2019-Dec-12 03:10 8.3
2019-Dec-12 03:05 8.3
2019-Dec-12 03:03 8.3
2019-Dec-12 02:56 8.3
2019-Dec-12 02:51 8.3
2019-Dec-12 02:47 8.9
2019-Dec-12 02:40 8.9
2019-Dec-12 02:35 8.9
2019-Dec-12 02:33 9.4
2019-Dec-12 02:26 9.4
2019-Dec-12 02:20 341 9.4
2019-Dec-12 02:17 326 9.4
2019-Dec-12 02:10 030 0 gusting 2 9.4
2019-Dec-12 02:05 359 0 gusting 2 9.4
2019-Dec-12 02:02 356 0 gusting 2 9.4
2019-Dec-12 01:56 354 0 gusting 2 9.4
2019-Dec-12 01:50 354 0 gusting 2 10.0
2019-Dec-12 01:47 353 0 gusting 2 10.0
2019-Dec-12 01:40 353 0 gusting 2 10.0
2019-Dec-12 01:36 356 0 gusting 2 10.0
2019-Dec-12 01:33 352 0 gusting 2 10.0
2019-Dec-12 01:26 351 0 gusting 2 10.0
2019-Dec-12 01:21 352 0 gusting 1 10.6
2019-Dec-12 01:16 352 0 gusting 1 10.6
2019-Dec-12 01:10 10.6
2019-Dec-12 01:06 352 10.6
2019-Dec-12 01:04 10.6
2019-Dec-12 00:56 352 0 gusting 2 10.6
2019-Dec-12 00:51 353 0 gusting 2 11.1
2019-Dec-12 00:47 356 0 gusting 3 11.1
2019-Dec-12 00:41 358 1 gusting 3 11.1
2019-Dec-12 00:35 346 0 gusting 2 11.1
2019-Dec-12 00:31 346 11.1
2019-Dec-12 00:26 11.1
2019-Dec-12 00:20 11.1
2019-Dec-12 00:16 11.1
2019-Dec-12 00:11 11.7
2019-Dec-12 00:05 346 11.7
2019-Dec-11 23:56 343 0 gusting 3 12.2
2019-Dec-11 23:50 356 1 gusting 3 12.2
2019-Dec-11 23:48 360 1 gusting 3 12.2
2019-Dec-11 23:41 340 0 gusting 2 12.2
2019-Dec-11 23:35 326 0 gusting 2 12.8
2019-Dec-11 23:31 355 0 gusting 2 12.8
2019-Dec-11 23:25 354 0 gusting 2 12.8
2019-Dec-11 23:20 348 0 gusting 2 13.3
2019-Dec-11 23:17 006 13.3
2019-Dec-11 23:10 001 0 gusting 3 13.3
2019-Dec-11 23:06 052 0 gusting 3 13.9
2019-Dec-11 23:02 340 0 gusting 4 13.9
2019-Dec-11 22:55 359 0 gusting 4 13.9
2019-Dec-11 22:51 359 1 gusting 4 14.4
2019-Dec-11 22:47 001 0 gusting 4 14.4
2019-Dec-11 22:40 052 1 gusting 6 14.4
2019-Dec-11 22:35 360 1 gusting 6 14.4
2019-Dec-11 22:31 094 1 gusting 6 14.4
2019-Dec-11 22:26 067 2 gusting 6 14.4
2019-Dec-11 22:20 037 2 gusting 6 15.0
2019-Dec-11 22:17 087 1 gusting 6 15.0
2019-Dec-11 22:11 020 2 gusting 6 15.0
2019-Dec-11 22:06 316 2 gusting 7 15.0
2019-Dec-11 22:03 351 3 gusting 7 15.0
2019-Dec-11 21:55 340 1 gusting 6 15.0
2019-Dec-11 21:51 011 2 gusting 8 15.0
2019-Dec-11 21:47 001 2 gusting 8 15.0
2019-Dec-11 21:41 039 1 gusting 8 15.0
2019-Dec-11 21:36 316 4 gusting 8 15.0
2019-Dec-11 21:33 359 2 gusting 8 15.0
2019-Dec-11 21:26 330 3 gusting 8 15.0
2019-Dec-11 21:20 359 1 gusting 7 15.0
2019-Dec-11 21:19 340 2 gusting 7 15.0
2019-Dec-11 21:11 054 2 gusting 9 15.0
2019-Dec-11 21:06 340 4 gusting 9 15.0
2019-Dec-11 21:03 027 1 gusting 6 15.0
2019-Dec-11 20:55 002 1 gusting 6 15.6
2019-Dec-11 20:51 068 1 gusting 7 15.0
2019-Dec-11 20:47 002 3 gusting 10 15.0
2019-Dec-11 20:40 031 3 gusting 10 15.0
2019-Dec-11 20:35 072 1 gusting 6 15.0
2019-Dec-11 20:32 085 2 gusting 8 15.0
2019-Dec-11 20:25 001 3 gusting 8 14.4
2019-Dec-11 20:20 321 2 gusting 6 15.0
2019-Dec-11 20:17 348 3 gusting 8 14.4
2019-Dec-11 20:11 044 3 gusting 10 14.4
2019-Dec-11 20:05 325 3 gusting 10 14.4
2019-Dec-11 20:02 004 4 gusting 7 14.4
2019-Dec-11 19:56 077 4 gusting 12 14.4
2019-Dec-11 19:50 072 4 gusting 12 14.4
2019-Dec-11 19:47 359 2 gusting 6 14.4
2019-Dec-11 19:41 049 3 gusting 7 14.4
2019-Dec-11 19:35 008 3 gusting 11 13.9
2019-Dec-11 19:32 353 4 gusting 11 13.9
2019-Dec-11 19:26 011 3 gusting 7 13.9
2019-Dec-11 19:20 026 2 gusting 6 13.9
2019-Dec-11 19:16 360 3 gusting 6 13.9
2019-Dec-11 19:10 350 3 gusting 8 13.9
2019-Dec-11 19:05 072 3 gusting 8 13.3
2019-Dec-11 19:02 353 3 gusting 6 13.3
2019-Dec-11 18:55 351 2 gusting 6 13.3
2019-Dec-11 18:51 058 3 gusting 6 13.3
2019-Dec-11 18:46 080 3 gusting 6 13.3
2019-Dec-11 18:41 023 2 gusting 7 13.3
2019-Dec-11 18:35 354 3 gusting 7 12.8
2019-Dec-11 18:32 041 2 gusting 7 12.8
2019-Dec-11 18:26 001 2 gusting 7 12.8
2019-Dec-11 18:20 315 2 gusting 8 12.8
2019-Dec-11 18:17 015 2 gusting 8 12.8
2019-Dec-11 18:11 322 2 gusting 8 12.2
2019-Dec-11 18:05 018 3 gusting 6 12.2
2019-Dec-11 18:04 359 3 gusting 6 12.2
2019-Dec-11 17:55 353 2 gusting 6 12.2
2019-Dec-11 17:51 343 2 gusting 10 12.2
2019-Dec-11 17:46 350 4 gusting 10 11.7
2019-Dec-11 17:41 360 2 gusting 9 11.7
2019-Dec-11 17:35 095 4 gusting 9 11.1
2019-Dec-11 17:33 001 3 gusting 6 11.1
2019-Dec-11 17:25 360 2 gusting 9 11.1
2019-Dec-11 17:20 041 2 gusting 9 11.1
2019-Dec-11 17:17 345 4 gusting 7 10.6
2019-Dec-11 17:11 320 3 gusting 9 10.6
2019-Dec-11 17:06 352 4 gusting 9 10.6
2019-Dec-11 17:02 359 3 gusting 8 10.6
2019-Dec-11 16:56 324 4 gusting 9 10.0
2019-Dec-11 16:50 360 4 gusting 9 10.0
2019-Dec-11 16:47 359 3 gusting 6 10.0
2019-Dec-11 16:40 345 3 gusting 10 10.0
2019-Dec-11 16:35 331 4 gusting 10 10.0
2019-Dec-11 16:32 321 4 gusting 9 9.4
2019-Dec-11 16:25 023 3 gusting 7 10.0
2019-Dec-11 16:20 359 1 gusting 7 10.0
2019-Dec-11 16:19 347 3 gusting 7 9.4
2019-Dec-11 16:10 003 2 gusting 9 9.4
2019-Dec-11 16:05 332 3 gusting 9 9.4
2019-Dec-11 16:04 330 2 gusting 7 9.4
2019-Dec-11 15:55 310 3 gusting 7 8.9
2019-Dec-11 15:51 001 3 gusting 7 8.9
2019-Dec-11 15:48 050 3 gusting 9 8.9
2019-Dec-11 15:41 360 4 gusting 9 8.3
2019-Dec-11 15:35 338 4 gusting 8 8.3
2019-Dec-11 15:32 352 4 gusting 8 8.3
2019-Dec-11 15:25 359 3 gusting 8 8.3
2019-Dec-11 15:21 325 3 gusting 9 8.3
2019-Dec-11 15:16 357 5 gusting 9 7.8
2019-Dec-11 15:11 355 3 gusting 7 7.8
2019-Dec-11 15:05 341 4 gusting 9 7.8
2019-Dec-11 15:01 354 2 gusting 9 7.8
2019-Dec-11 14:55 334 3 gusting 10 7.8
2019-Dec-11 14:51 347 3 gusting 10 7.8
2019-Dec-11 14:47 350 3 gusting 10 7.8
2019-Dec-11 14:40 355 4 gusting 8 7.2
2019-Dec-11 14:36 004 3 gusting 12 7.2
2019-Dec-11 14:33 295 4 gusting 12 7.2
2019-Dec-11 14:25 001 4 gusting 11 7.2
2019-Dec-11 14:20 359 4 gusting 9 7.2
2019-Dec-11 14:18 042 5 gusting 8 7.2
2019-Dec-11 14:10 011 1 gusting 7 7.2
2019-Dec-11 14:05 349 3 gusting 7 6.7
2019-Dec-11 14:02 321 3 gusting 8 6.7
2019-Dec-11 13:56 019 3 gusting 8 6.7
2019-Dec-11 13:50 349 2 gusting 7 7.2
2019-Dec-11 13:47 011 2 gusting 6 7.2
2019-Dec-11 13:41 353 3 gusting 6 7.2
2019-Dec-11 13:35 352 3 gusting 6 7.2
2019-Dec-11 13:32 328 3 gusting 6 6.7
2019-Dec-11 13:25 360 1 gusting 6 7.2
2019-Dec-11 13:21 334 2 gusting 6 6.7
2019-Dec-11 13:17 333 3 gusting 6 6.7
2019-Dec-11 13:10 359 3 gusting 6 7.2
2019-Dec-11 13:06 354 3 gusting 6 7.2
2019-Dec-11 13:03 342 1 gusting 6 7.2
2019-Dec-11 12:56 359 3 gusting 7 7.2
2019-Dec-11 12:50 354 4 gusting 7 7.2
2019-Dec-11 12:47 346 3 gusting 9 7.2
2019-Dec-11 12:40 354 4 gusting 9 7.2
2019-Dec-11 12:35 356 4 gusting 6 7.2
2019-Dec-11 12:32 354 3 gusting 6 7.2
2019-Dec-11 12:25 326 2 gusting 7 7.2
2019-Dec-11 12:20 333 4 gusting 7 7.2
2019-Dec-11 12:17 001 3 gusting 7 7.2
2019-Dec-11 12:10 359 4 gusting 6 7.2
2019-Dec-11 12:06 342 3 gusting 6 7.2
2019-Dec-11 12:01 345 3 gusting 6 7.2
2019-Dec-11 11:56 028 2 gusting 8 7.2
2019-Dec-11 11:51 320 4 gusting 8 7.2
2019-Dec-11 11:46 326 4 gusting 7 7.2
2019-Dec-11 11:40 001 3 gusting 7 7.2
2019-Dec-11 11:36 338 3 gusting 8 7.2
2019-Dec-11 11:32 326 3 gusting 8 7.2
2019-Dec-11 11:26 359 4 gusting 7 7.2
2019-Dec-11 11:20 359 3 gusting 7 7.2
2019-Dec-11 11:19 359 3 gusting 7 7.2
2019-Dec-11 11:10 349 3 gusting 7 7.2
2019-Dec-11 11:06 354 3 gusting 6 7.2
2019-Dec-11 11:01 015 2 gusting 7 7.2
2019-Dec-11 10:56 004 3 gusting 7 7.2
2019-Dec-11 10:50 352 2 gusting 6 7.2
2019-Dec-11 10:41 037 2 gusting 8 7.2
2019-Dec-11 10:36 026 3 gusting 7 7.2
2019-Dec-11 10:34 319 2 gusting 5 7.2
2019-Dec-11 10:25 001 1 gusting 6 7.2
2019-Dec-11 10:20 342 3 gusting 7 7.2
2019-Dec-11 10:18 360 4 gusting 7 7.2
2019-Dec-11 10:11 342 3 gusting 6 7.2
2019-Dec-11 10:06 324 2 gusting 7 7.2
2019-Dec-11 10:03 342 4 gusting 7 7.2
2019-Dec-11 09:56 339 3 gusting 9 7.2
2019-Dec-11 09:51 360 5 gusting 9 7.2
2019-Dec-11 09:48 349 5 gusting 9 7.2
2019-Dec-11 09:41 350 5 gusting 9 7.2
2019-Dec-11 09:36 360 2 gusting 8 7.2
2019-Dec-11 09:32 001 2 gusting 8 7.2
2019-Dec-11 09:25 359 1 gusting 10 7.2
2019-Dec-11 09:20 021 2 gusting 10 7.2
2019-Dec-11 09:17 356 3 gusting 10 7.2
2019-Dec-11 09:12 340 4 gusting 10 7.2
2019-Dec-11 09:06 359 3 gusting 12 7.2
2019-Dec-11 09:02 354 5 gusting 12 7.2
2019-Dec-11 08:56 322 3 gusting 7 7.8
2019-Dec-11 08:51 349 4 gusting 7 7.8
2019-Dec-11 08:49 346 4 gusting 6 7.8
2019-Dec-11 08:40 359 3 gusting 8 7.8
2019-Dec-11 08:36 357 3 gusting 9 7.8
2019-Dec-11 08:34 359 4 gusting 9 7.8
2019-Dec-11 08:25 357 5 gusting 9 7.8
2019-Dec-11 08:20 359 2 gusting 10 7.8
2019-Dec-11 08:18 351 4 gusting 10 7.8
2019-Dec-11 08:10 352 3 gusting 8 7.8
2019-Dec-11 08:06 320 4 gusting 11 7.8
2019-Dec-11 08:03 354 5 gusting 11 7.8
2019-Dec-11 07:56 354 4 gusting 8 7.8
2019-Dec-11 07:50 347 3 gusting 7 7.8
2019-Dec-11 07:49 336 4 gusting 9 7.8
2019-Dec-11 07:41 326 3 gusting 10 7.8
2019-Dec-11 07:35 341 4 gusting 10 7.8
2019-Dec-11 07:34 342 3 gusting 8 7.8
2019-Dec-11 07:25 327 2 gusting 7 7.8
2019-Dec-11 07:21 348 3 gusting 8 8.3
2019-Dec-11 07:18 354 3 gusting 8 8.3
2019-Dec-11 07:10 021 4 gusting 10 8.3
2019-Dec-11 07:06 001 4 gusting 10 8.3
2019-Dec-11 07:03 359 5 gusting 9 8.3
2019-Dec-11 06:56 007 5 gusting 9 8.3
2019-Dec-11 06:54 360 3 gusting 9 8.3
2019-Dec-11 06:41 012 5 gusting 10 8.3
2019-Dec-11 06:35 345 5 gusting 9 8.3
2019-Dec-11 06:34 001 5 gusting 10 8.3
2019-Dec-11 06:26 348 5 gusting 10 8.3
2019-Dec-11 06:21 029 5 gusting 10 8.3
2019-Dec-11 06:16 349 5 gusting 9 8.3
2019-Dec-11 06:11 330 4 gusting 8 8.3
2019-Dec-11 06:06 354 5 gusting 12 8.3
2019-Dec-11 06:02 011 5 gusting 12 8.3
2019-Dec-11 05:56 010 4 gusting 11 8.3
2019-Dec-11 05:50 360 5 gusting 11 8.3
2019-Dec-11 05:47 001 4 gusting 9 8.3
2019-Dec-11 05:41 033 5 gusting 8 8.9
2019-Dec-11 05:35 352 4 gusting 12 8.9
2019-Dec-11 05:33 001 6 gusting 12 8.9
2019-Dec-11 05:26 316 5 gusting 11 8.9
2019-Dec-11 05:20 328 4 gusting 12 8.9
2019-Dec-11 05:11 360 5 gusting 12 8.9
2019-Dec-11 05:05 348 6 gusting 12 8.9
2019-Dec-11 05:04 357 5 gusting 10 8.9
2019-Dec-11 04:55 359 3 gusting 9 8.9
2019-Dec-11 04:51 001 3 gusting 9 9.4
2019-Dec-11 04:47 001 3 gusting 12 9.4
2019-Dec-11 04:41 354 6 gusting 12 9.4
2019-Dec-11 04:36 352 6 gusting 12 9.4
2019-Dec-11 04:33 338 4 gusting 13 9.4
2019-Dec-11 04:26 035 6 gusting 13 9.4
2019-Dec-11 04:21 359 5 gusting 10 9.4
2019-Dec-11 04:17 359 4 gusting 12 9.4
2019-Dec-11 04:11 360 6 gusting 12 9.4
2019-Dec-11 04:05 307 5 gusting 13 9.4
2019-Dec-11 04:03 342 6 gusting 15 9.4
2019-Dec-11 03:55 349 6 gusting 15 9.4
2019-Dec-11 03:51 321 6 gusting 10 9.4
2019-Dec-11 03:49 340 4 gusting 15 9.4
2019-Dec-11 03:40 328 5 gusting 15 9.4
2019-Dec-11 03:35 025 5 gusting 10 9.4
2019-Dec-11 03:32 342 6 gusting 12 9.4
2019-Dec-11 03:26 343 6 gusting 12 9.4
2019-Dec-11 03:21 352 4 gusting 11 9.4
2019-Dec-11 03:18 356 6 gusting 13 9.4
2019-Dec-11 03:11 004 7 gusting 13 9.4
2019-Dec-11 03:06 336 3 gusting 9 10.0
2019-Dec-11 03:05 357 4 gusting 11 9.4